Home   Weather   Petrópolis   Past weeks
Flag for Brazil

Past Weather in Petrópolis, Rio de Janeiro, Brazil — Yesterday and Last 2 Weeks

Now
75 °F

Clear.


Feels Like: 77 °F
Forecast: 81 / 61 °F
Wind: 14 mph from East

Location: Galeao

Current Time: Oct 17, 2019 at 10:41:19 pm

Latest Report: Oct 17, 2019 at 10:00 pm


Visibility: 10 mi

Pressure: 30.01 "Hg (27.25 "Hg at 838m altitude)

Humidity: 74%

Dew Point: 66 °F

Location of PetrópolisLocation

Past Weather in Petrópolis — Graph

°F

Petrópolis Temperature Yesterday

Maximum temperature yesterday: 82 °F (at 12:00 pm)
Minimum temperature yesterday: 72 °F (at 5:00 am)
Average temperature yesterday: 77 °F

High & Low Weather Summary for the Past Weeks

 TemperatureHumidityPressure
High95 °F (Oct 13, 2:00 pm)94% (Oct 7, 4:00 am)30.12 "Hg (Oct 7, 4:00 am)
Low64 °F (Oct 3, 4:00 am)38% (Oct 5, 1:00 pm)29.80 "Hg (Oct 5, 3:00 pm)
Average76 °F75%29.98 "Hg
* Reported Oct 2 9:00 pm — Oct 17 9:00 pm, Petrópolis. Weather by CustomWeather, © 2019

Note: Actual official high and low records may vary slightly from our data, if they occured in-between our weather recording intervals... More about our weather records

Advertising

Petrópolis Weather History for the Previous 24 Hours

Scroll right to see more
 ConditionsComfort  
Time TempWeatherWind HumidityBarometerVisibility
9:00 pm
Thu, Oct 17
77 °FClear.10 mph69%29.98 "Hg10 mi
8:00 pm79 °FClear.8 mph70%29.98 "Hg10 mi
7:00 pm79 °FClear.8 mph74%29.98 "Hg10 mi
6:00 pm79 °FClear.10 mph70%29.95 "Hg10 mi
5:00 pm81 °FSunny.13 mph70%29.95 "Hg10 mi
4:00 pm81 °FPassing clouds.16 mph70%29.98 "HgN/A
3:00 pm82 °FPassing clouds.18 mph62%29.98 "HgN/A
2:00 pm84 °FPassing clouds.14 mph58%29.98 "HgN/A
1:00 pm86 °FPassing clouds.6 mph59%30.01 "HgN/A
11:00 am81 °FPassing clouds.7 mph66%30.07 "HgN/A
10:00 am79 °FScattered clouds.6 mph74%30.07 "HgN/A
9:00 am77 °FBroken clouds.5 mph79%30.09 "HgN/A
8:00 am75 °FBroken clouds.5 mph83%30.07 "HgN/A
7:00 am75 °FMore clouds than sun.2 mph78%30.07 "Hg6 mi
6:00 am72 °FPartly sunny.2 mph88%30.04 "HgN/A
5:00 am70 °FPassing clouds.3 mph94%30.04 "HgN/A
4:00 am72 °FMostly cloudy.3 mph88%30.04 "HgN/A
3:00 am73 °FMostly cloudy.3 mph83%30.07 "HgN/A
2:00 am73 °FMostly cloudy.3 mph83%30.07 "HgN/A
1:00 am75 °FMostly cloudy.5 mph78%30.07 "HgN/A
12:00 am75 °FPartly cloudy.3 mph78%30.07 "HgN/A
11:00 pm
Wed, Oct 16
75 °FPassing clouds.5 mph78%30.07 "HgN/A
10:00 pm75 °FOvercast.3 mph78%30.09 "HgN/A
Weather by CustomWeather, © 2019

See weather overview